owner,sensor,date,latitude,longitude,vertical_datum,wind_speed,wind_to_direction,wind_speed_of_gust,qcFlag 
TABS,ioos:station:wmo:42044:1,2011-06-01T00:00:00Z,26.1914,-97.0507,0.0,5.550801744,106.2151706,8.0,'11111222,11111222,11111222' 
TABS,ioos:station:wmo:42044:1,2011-06-01T00:30:00Z,26.1914,-97.0507,0.0,6.208929054,104.170918,8.6,'11111222,11111222,11111222' 
TABS,ioos:station:wmo:42044:1,2011-06-01T01:00:00Z,26.1914,-97.0507,0.0,6.178940039,106.6463361,8.73,'11111222,11111222,11111222' 
TABS,ioos:station:wmo:42044:1,2011-06-01T01:30:00Z,26.1914,-97.0507,0.0,6.013027524,109.7311145,8.64,'11111222,11111222,11111222' 
TABS,ioos:station:wmo:42044:1,2011-06-01T02:00:00Z,26.1914,-97.0507,0.0,6.230200639,112.1604062,8.11,'11111222,11111222,11111222' 
TABS,ioos:station:wmo:42044:1,2011-06-01T02:30:00Z,26.1914,-97.0507,0.0,6.557812135,115.2758895,8.74,'11111222,11111222,11111222' 
TABS,ioos:station:wmo:42044:1,2011-06-01T03:00:00Z,26.1914,-97.0507,0.0,5.756083738,115.8531465,7.38,'11111222,11111222,11111222' 
TABS,ioos:station:wmo:42044:1,2011-06-01T03:30:00Z,26.1914,-97.0507,0.0,5.644856065,117.6548947,7.58,'11111222,11111222,11111222' 
TABS,ioos:station:wmo:42044:1,2011-06-01T04:00:00Z,26.1914,-97.0507,0.0,5.274665866,112.870905,6.57,'11111222,11111222,11111222' 
TABS,ioos:station:wmo:42044:1,2011-06-01T04:30:00Z,26.1914,-97.0507,0.0,4.991643016,112.2493925,6.4,'11111222,11111222,11111222' 
TABS,ioos:station:wmo:42044:1,2011-06-01T05:00:00Z,26.1914,-97.0507,0.0,4.803425861,117.2588988,6.37,'11111222,11111222,11111222' 
TABS,ioos:station:wmo:42044:1,2011-06-01T05:30:00Z,26.1914,-97.0507,0.0,4.186322969,121.2222975,5.45,'11111222,11111222,11111222' 
TABS,ioos:station:wmo:42044:1,2011-06-01T06:00:00Z,26.1914,-97.0507,0.0,3.830822366,118.7063063,5.74,'11111222,11111222,11111222' 
TABS,ioos:station:wmo:42044:1,2011-06-01T06:30:00Z,26.1914,-97.0507,0.0,4.077903873,112.0365963,5.26,'11111222,11111222,11111222' 
TABS,ioos:station:wmo:42044:1,2011-06-01T07:00:00Z,26.1914,-97.0507,0.0,3.413531895,118.1419563,4.78,'11111222,11111222,11111222' 
TABS,ioos:station:wmo:42044:1,2011-06-01T07:30:00Z,26.1914,-97.0507,0.0,2.072920645,129.9120674,2.72,'11111222,11111222,11111222' 
TABS,ioos:station:wmo:42044:1,2011-06-01T08:00:00Z,26.1914,-97.0507,0.0,3.046900064,105.2225185,4.21,'11111222,11111222,11111222' 
TABS,ioos:station:wmo:42044:1,2011-06-01T08:30:00Z,26.1914,-97.0507,0.0,3.325808172,111.7058069,4.41,'11111222,11111222,11111222' 
TABS,ioos:station:wmo:42044:1,2011-06-01T09:00:00Z,26.1914,-97.0507,0.0,3.251614983,115.6985544,4.3,'11111222,11111222,11111222' 
TABS,ioos:station:wmo:42044:1,2011-06-01T09:30:00Z,26.1914,-97.0507,0.0,3.419195812,109.654199,4.39,'11111222,11111222,11111222' 
TABS,ioos:station:wmo:42044:1,2011-06-01T10:00:00Z,26.1914,-97.0507,0.0,3.944172917,104.9879478,5.28,'11111222,11111222,11111222' 
TABS,ioos:station:wmo:42044:1,2011-06-01T10:30:00Z,26.1914,-97.0507,0.0,4.564000438,98.8229187,5.78,'11111222,11111222,11111222' 
TABS,ioos:station:wmo:42044:1,2011-06-01T11:00:00Z,26.1914,-97.0507,0.0,4.671637828,106.030013,6.41,'11111222,11111222,11111222' 
TABS,ioos:station:wmo:42044:1,2011-06-01T11:30:00Z,26.1914,-97.0507,0.0,4.792128963,107.1119003,6.09,'11111222,11111222,11111222' 
TABS,ioos:station:wmo:42044:1,2011-06-01T12:00:00Z,26.1914,-97.0507,0.0,4.947100161,100.1291408,6.25,'11111222,11111222,11111222' 
TABS,ioos:station:wmo:42044:1,2011-06-01T12:30:00Z,26.1914,-97.0507,0.0,4.254409477,103.3180237,5.78,'11111222,11111222,11111222' 
TABS,ioos:station:wmo:42044:1,2011-06-01T13:00:00Z,26.1914,-97.0507,0.0,4.446403041,106.1935812,5.7,'11111222,11111222,11111222' 
TABS,ioos:station:wmo:42044:1,2011-06-01T13:30:00Z,26.1914,-97.0507,0.0,3.93284884,106.5461311,4.94,'11111222,11111222,11111222' 
TABS,ioos:station:wmo:42044:1,2011-06-01T14:00:00Z,26.1914,-97.0507,0.0,3.791530034,105.136221,4.94,'11111222,11111222,11111222' 
TABS,ioos:station:wmo:42044:1,2011-06-01T14:30:00Z,26.1914,-97.0507,0.0,3.94068522,99.19978913,5.05,'11111222,11111222,11111222' 
TABS,ioos:station:wmo:42044:1,2011-06-01T15:00:00Z,26.1914,-97.0507,0.0,3.514000569,96.70071657,4.57,'11111222,11111222,11111222' 
TABS,ioos:station:wmo:42044:1,2011-06-01T15:30:00Z,26.1914,-97.0507,0.0,3.052507166,96.9624509,4.03,'11111222,11111222,11111222' 
TABS,ioos:station:wmo:42044:1,2011-06-01T16:00:00Z,26.1914,-97.0507,0.0,2.810871751,91.42741945,3.61,'11111222,11111222,11111222' 
TABS,ioos:station:wmo:42044:1,2011-06-01T16:30:00Z,26.1914,-97.0507,0.0,3.301711677,102.7738902,4.51,'11111222,11111222,11111222' 
TABS,ioos:station:wmo:42044:1,2011-06-01T17:00:00Z,26.1914,-97.0507,0.0,3.998812324,101.3946265,5.27,'11111222,11111222,11111222' 
TABS,ioos:station:wmo:42044:1,2011-06-01T17:30:00Z,26.1914,-97.0507,0.0,3.820013089,90.15040918,4.98,'11111222,11111222,11111222' 
TABS,ioos:station:wmo:42044:1,2011-06-01T18:00:00Z,26.1914,-97.0507,0.0,4.030198506,89.43090649,5.3,'11111222,11111222,11111222' 
TABS,ioos:station:wmo:42044:1,2011-06-01T18:30:00Z,26.1914,-97.0507,0.0,3.943665807,87.52896435,5.25,'11111222,11111222,11111222' 
TABS,ioos:station:wmo:42044:1,2011-06-01T19:00:00Z,26.1914,-97.0507,0.0,3.898987048,98.10972238,4.88,'11111222,11111222,11111222' 
TABS,ioos:station:wmo:42044:1,2011-06-01T19:30:00Z,26.1914,-97.0507,0.0,4.271416627,91.47609477,5.44,'11111222,11111222,11111222' 
TABS,ioos:station:wmo:42044:1,2011-06-01T20:00:00Z,26.1914,-97.0507,0.0,4.260575079,94.0381221,5.4,'11111222,11111222,11111222' 
TABS,ioos:station:wmo:42044:1,2011-06-01T20:30:00Z,26.1914,-97.0507,0.0,4.353320572,87.7615778,5.22,'11111222,11111222,11111222' 
TABS,ioos:station:wmo:42044:1,2011-06-01T21:00:00Z,26.1914,-97.0507,0.0,4.082401254,88.03432311,5.03,'11111222,11111222,11111222' 
TABS,ioos:station:wmo:42044:1,2011-06-01T21:30:00Z,26.1914,-97.0507,0.0,4.191097708,84.24819044,5.34,'11111222,11111222,11111222' 
TABS,ioos:station:wmo:42044:1,2011-06-01T22:00:00Z,26.1914,-97.0507,0.0,4.338478996,84.70951025,5.7,'11111222,11111222,11111222' 
TABS,ioos:station:wmo:42044:1,2011-06-01T22:30:00Z,26.1914,-97.0507,0.0,4.786533192,92.99432722,5.87,'11111222,11111222,11111222' 
TABS,ioos:station:wmo:42044:1,2011-06-01T23:00:00Z,26.1914,-97.0507,0.0,5.109686879,96.17962065,6.42,'11111222,11111222,11111222' 
TABS,ioos:station:wmo:42044:1,2011-06-01T23:30:00Z,26.1914,-97.0507,0.0,5.383270381,95.3297414,7.2,'11111222,11111222,11111222' 
TABS,ioos:station:wmo:42044:1,2011-06-02T00:00:00Z,26.1914,-97.0507,0.0,5.711260807,99.67712512,7.23,'11111222,11111222,11111222' 
TABS,ioos:station:wmo:42044:1,2011-06-02T00:30:00Z,26.1914,-97.0507,0.0,5.797723691,100.5350611,7.41,'11111222,11111222,11111222' 
TABS,ioos:station:wmo:42044:1,2011-06-02T01:00:00Z,26.1914,-97.0507,0.0,5.685358388,103.4255664,6.91,'11111222,11111222,11111222' 
TABS,ioos:station:wmo:42044:1,2011-06-02T01:30:00Z,26.1914,-97.0507,0.0,5.881640927,101.6733155,7.7,'11111222,11111222,11111222' 
TABS,ioos:station:wmo:42044:1,2011-06-02T02:00:00Z,26.1914,-97.0507,0.0,5.920557406,104.5764762,7.59,'11111222,11111222,11111222' 
TABS,ioos:station:wmo:42044:1,2011-06-02T02:30:00Z,26.1914,-97.0507,0.0,5.696885114,109.8030361,7.2,'11111222,11111222,11111222' 
TABS,ioos:station:wmo:42044:1,2011-06-02T03:00:00Z,26.1914,-97.0507,0.0,5.289234349,112.6868945,6.46,'11111222,11111222,11111222' 
TABS,ioos:station:wmo:42044:1,2011-06-02T03:30:00Z,26.1914,-97.0507,0.0,5.739146278,120.0052716,6.92,'11111222,11111222,11111222' 
TABS,ioos:station:wmo:42044:1,2011-06-02T04:00:00Z,26.1914,-97.0507,0.0,5.431648,122.5200792,7.32,'11111222,11111222,11111222' 
TABS,ioos:station:wmo:42044:1,2011-06-02T04:30:00Z,26.1914,-97.0507,0.0,5.447173579,123.5445453,6.86,'11111222,11111222,11111222' 
TABS,ioos:station:wmo:42044:1,2011-06-02T05:00:00Z,26.1914,-97.0507,0.0,5.330759796,127.8376091,6.68,'11111222,11111222,11111222' 
TABS,ioos:station:wmo:42044:1,2011-06-02T05:30:00Z,26.1914,-97.0507,0.0,5.133906894,135.6316471,6.54,'11111222,11111222,11111222' 
TABS,ioos:station:wmo:42044:1,2011-06-02T06:00:00Z,26.1914,-97.0507,0.0,5.258374273,137.3894616,6.43,'11111222,11111222,11111222' 
TABS,ioos:station:wmo:42044:1,2011-06-02T06:30:00Z,26.1914,-97.0507,0.0,5.008313089,133.3822249,6.28,'11111222,11111222,11111222' 
TABS,ioos:station:wmo:42044:1,2011-06-02T07:00:00Z,26.1914,-97.0507,0.0,5.123172845,131.2809358,6.4,'11111222,11111222,11111222' 
TABS,ioos:station:wmo:42044:1,2011-06-02T07:30:00Z,26.1914,-97.0507,0.0,5.105800623,134.2067979,6.45,'11111222,11111222,11111222' 
TABS,ioos:station:wmo:42044:1,2011-06-02T08:00:00Z,26.1914,-97.0507,0.0,4.763884969,125.2583905,6.15,'11111222,11111222,11111222' 
TABS,ioos:station:wmo:42044:1,2011-06-02T08:30:00Z,26.1914,-97.0507,0.0,4.538193473,130.7111724,5.64,'11111222,11111222,11111222' 
TABS,ioos:station:wmo:42044:1,2011-06-02T09:00:00Z,26.1914,-97.0507,0.0,4.185713798,130.3492185,5.22,'11111222,11111222,11111222' 
TABS,ioos:station:wmo:42044:1,2011-06-02T09:30:00Z,26.1914,-97.0507,0.0,4.2276471,128.4696479,5.63,'11111222,11111222,11111222' 
TABS,ioos:station:wmo:42044:1,2011-06-02T10:00:00Z,26.1914,-97.0507,0.0,3.814354467,142.3492797,4.76,'11111222,11111222,11111222' 
TABS,ioos:station:wmo:42044:1,2011-06-02T10:30:00Z,26.1914,-97.0507,0.0,4.03368318,148.7929239,5.08,'11111222,11111222,11111222' 
TABS,ioos:station:wmo:42044:1,2011-06-02T11:00:00Z,26.1914,-97.0507,0.0,4.022747817,159.1774913,4.97,'11111222,11111222,11111222' 
TABS,ioos:station:wmo:42044:1,2011-06-02T11:30:00Z,26.1914,-97.0507,0.0,3.580223457,158.0205466,4.48,'11111222,11111222,11111222' 
TABS,ioos:station:wmo:42044:1,2011-06-02T12:00:00Z,26.1914,-97.0507,0.0,3.44419802,154.5512292,4.39,'11111222,11111222,11111222' 
TABS,ioos:station:wmo:42044:1,2011-06-02T12:30:00Z,26.1914,-97.0507,0.0,3.240771513,157.3123998,4.06,'11111222,11111222,11111222' 
TABS,ioos:station:wmo:42044:1,2011-06-02T13:00:00Z,26.1914,-97.0507,0.0,2.91139142,153.6992548,3.88,'11111222,11111222,11111222' 
TABS,ioos:station:wmo:42044:1,2011-06-02T13:30:00Z,26.1914,-97.0507,0.0,2.906303494,143.9584271,3.6,'11111222,11111222,11111222' 
TABS,ioos:station:wmo:42044:1,2011-06-02T14:00:00Z,26.1914,-97.0507,0.0,2.793080736,134.8552637,3.71,'11111222,11111222,11111222' 
TABS,ioos:station:wmo:42044:1,2011-06-02T14:30:00Z,26.1914,-97.0507,0.0,2.476065427,142.7138791,3.43,'11111222,11111222,11111222' 
TABS,ioos:station:wmo:42044:1,2011-06-02T15:00:00Z,26.1914,-97.0507,0.0,2.437970467,140.8266441,3.52,'11111222,11111222,11111222' 
TABS,ioos:station:wmo:42044:1,2011-06-02T15:30:00Z,26.1914,-97.0507,0.0,2.186869909,129.8058989,3.48,'11111222,11111222,11111222' 
TABS,ioos:station:wmo:42044:1,2011-06-02T16:00:00Z,26.1914,-97.0507,0.0,2.603401621,106.973665,3.58,'11111222,11111222,11111222' 
TABS,ioos:station:wmo:42044:1,2011-06-02T16:30:00Z,26.1914,-97.0507,0.0,2.796515689,118.3982452,3.74,'11111222,11111222,11111222' 
TABS,ioos:station:wmo:42044:1,2011-06-02T17:00:00Z,26.1914,-97.0507,0.0,2.0902153,118.8952113,3.09,'11111222,11111222,11111222' 
TABS,ioos:station:wmo:42044:1,2011-06-02T17:30:00Z,26.1914,-97.0507,0.0,2.085857138,104.4363621,2.84,'11111222,11111222,11111222' 
TABS,ioos:station:wmo:42044:1,2011-06-02T18:00:00Z,26.1914,-97.0507,0.0,2.689628227,99.84795486,3.49,'11111222,11111222,11111222' 
TABS,ioos:station:wmo:42044:1,2011-06-02T18:30:00Z,26.1914,-97.0507,0.0,3.147014458,86.17340248,4.39,'11111222,11111222,11111222' 
TABS,ioos:station:wmo:42044:1,2011-06-02T19:00:00Z,26.1914,-97.0507,0.0,2.144061566,108.7733501,3.31,'11111222,11111222,11111222' 
TABS,ioos:station:wmo:42044:1,2011-06-02T19:30:00Z,26.1914,-97.0507,0.0,2.056647758,99.23372284,3.38,'11111222,11111222,11111222' 
TABS,ioos:station:wmo:42044:1,2011-06-02T20:00:00Z,26.1914,-97.0507,0.0,2.444013093,86.71572447,3.57,'11111222,11111222,11111222' 
TABS,ioos:station:wmo:42044:1,2011-06-02T20:30:00Z,26.1914,-97.0507,0.0,3.097256851,97.6072709,4.19,'11111222,11111222,11111222' 
TABS,ioos:station:wmo:42044:1,2011-06-02T21:00:00Z,26.1914,-97.0507,0.0,4.610694091,89.00539435,6.69,'11111222,11111222,11111222' 
TABS,ioos:station:wmo:42044:1,2011-06-02T21:30:00Z,26.1914,-97.0507,0.0,4.337107331,100.0925568,5.95,'11111222,11111222,11111222' 
TABS,ioos:station:wmo:42044:1,2011-06-02T22:00:00Z,26.1914,-97.0507,0.0,4.841032948,88.81595316,6.47,'11111222,11111222,11111222' 
TABS,ioos:station:wmo:42044:1,2011-06-02T22:30:00Z,26.1914,-97.0507,0.0,4.810259868,89.4040117,6.41,'11111222,11111222,11111222' 
TABS,ioos:station:wmo:42044:1,2011-06-02T23:00:00Z,26.1914,-97.0507,0.0,4.938218302,101.4468532,6.46,'11111222,11111222,11111222' 
TABS,ioos:station:wmo:42044:1,2011-06-02T23:30:00Z,26.1914,-97.0507,0.0,4.901938392,107.696069,6.29,'11111222,11111222,11111222' 
TABS,ioos:station:wmo:42044:1,2011-06-03T00:00:00Z,26.1914,-97.0507,0.0,4.993846213,104.2592459,6.42,'11111222,11111222,11111222' 
TABS,ioos:station:wmo:42044:1,2011-06-03T00:30:00Z,26.1914,-97.0507,0.0,4.966135318,110.8805003,6.06,'11111222,11111222,11111222' 
TABS,ioos:station:wmo:42044:1,2011-06-03T01:00:00Z,26.1914,-97.0507,0.0,4.770796579,112.4262304,6.19,'11111222,11111222,11111222' 
TABS,ioos:station:wmo:42044:1,2011-06-03T01:30:00Z,26.1914,-97.0507,0.0,4.795497889,121.7017765,5.89,'11111222,11111222,11111222' 
TABS,ioos:station:wmo:42044:1,2011-06-03T02:00:00Z,26.1914,-97.0507,0.0,5.074770931,120.5574851,6.09,'11111222,11111222,11111222' 
TABS,ioos:station:wmo:42044:1,2011-06-03T02:30:00Z,26.1914,-97.0507,0.0,4.855852139,121.9557004,6.01,'11111222,11111222,11111222' 
TABS,ioos:station:wmo:42044:1,2011-06-03T03:00:00Z,26.1914,-97.0507,0.0,5.177847043,129.593379,6.53,'11111222,11111222,11111222' 
TABS,ioos:station:wmo:42044:1,2011-06-03T03:30:00Z,26.1914,-97.0507,0.0,4.979015967,133.8610638,6.35,'11111222,11111222,11111222' 
TABS,ioos:station:wmo:42044:1,2011-06-03T04:00:00Z,26.1914,-97.0507,0.0,5.165675174,132.8037513,6.51,'11111222,11111222,11111222' 
TABS,ioos:station:wmo:42044:1,2011-06-03T04:30:00Z,26.1914,-97.0507,0.0,5.173026194,131.2383462,6.6,'11111222,11111222,11111222' 
TABS,ioos:station:wmo:42044:1,2011-06-03T05:00:00Z,26.1914,-97.0507,0.0,5.182016982,140.8742635,6.43,'11111222,11111222,11111222' 
TABS,ioos:station:wmo:42044:1,2011-06-03T05:30:00Z,26.1914,-97.0507,0.0,4.546757086,138.2097945,5.74,'11111222,11111222,11111222' 
TABS,ioos:station:wmo:42044:1,2011-06-03T06:00:00Z,26.1914,-97.0507,0.0,4.504542152,134.3707186,5.65,'11111222,11111222,11111222' 
TABS,ioos:station:wmo:42044:1,2011-06-03T06:30:00Z,26.1914,-97.0507,0.0,4.416016304,143.2860933,5.53,'11111222,11111222,11111222' 
TABS,ioos:station:wmo:42044:1,2011-06-03T07:00:00Z,26.1914,-97.0507,0.0,4.250423508,136.048871,5.37,'11111222,11111222,11111222' 
TABS,ioos:station:wmo:42044:1,2011-06-03T07:30:00Z,26.1914,-97.0507,0.0,4.521028644,139.9351108,5.68,'11111222,11111222,11111222' 
TABS,ioos:station:wmo:42044:1,2011-06-03T08:00:00Z,26.1914,-97.0507,0.0,4.221433406,134.9043432,5.58,'11111222,11111222,11111222' 
TABS,ioos:station:wmo:42044:1,2011-06-03T08:30:00Z,26.1914,-97.0507,0.0,4.422951503,132.709711,5.77,'11111222,11111222,11111222' 
TABS,ioos:station:wmo:42044:1,2011-06-03T09:00:00Z,26.1914,-97.0507,0.0,4.542290171,136.9629499,5.78,'11111222,11111222,11111222' 
TABS,ioos:station:wmo:42044:1,2011-06-03T09:30:00Z,26.1914,-97.0507,0.0,4.497999555,136.0812373,5.51,'11111222,11111222,11111222' 
TABS,ioos:station:wmo:42044:1,2011-06-03T10:00:00Z,26.1914,-97.0507,0.0,4.766235412,134.3202806,6.38,'11111222,11111222,11111222' 
TABS,ioos:station:wmo:42044:1,2011-06-03T10:30:00Z,26.1914,-97.0507,0.0,4.956853841,125.8067549,6.52,'11111222,11111222,11111222' 
TABS,ioos:station:wmo:42044:1,2011-06-03T11:00:00Z,26.1914,-97.0507,0.0,4.450584231,129.9872137,5.72,'11111222,11111222,11111222' 
TABS,ioos:station:wmo:42044:1,2011-06-03T11:30:00Z,26.1914,-97.0507,0.0,4.083748278,130.8298889,5.23,'11111222,11111222,11111222' 
TABS,ioos:station:wmo:42044:1,2011-06-03T12:00:00Z,26.1914,-97.0507,0.0,3.828903237,132.5659224,5.0,'11111222,11111222,11111222' 
TABS,ioos:station:wmo:42044:1,2011-06-03T12:30:00Z,26.1914,-97.0507,0.0,3.914345411,127.631397,5.12,'11111222,11111222,11111222' 
TABS,ioos:station:wmo:42044:1,2011-06-03T13:00:00Z,26.1914,-97.0507,0.0,3.862460356,136.6788286,5.03,'11111222,11111222,11111222' 
TABS,ioos:station:wmo:42044:1,2011-06-03T13:30:00Z,26.1914,-97.0507,0.0,3.277026091,144.5642397,4.32,'11111222,11111222,11111222' 
TABS,ioos:station:wmo:42044:1,2011-06-03T14:00:00Z,26.1914,-97.0507,0.0,3.189106458,141.6210763,4.11,'11111222,11111222,11111222' 
TABS,ioos:station:wmo:42044:1,2011-06-03T14:30:00Z,26.1914,-97.0507,0.0,3.128466078,142.1413781,4.02,'11111222,11111222,11111222' 
TABS,ioos:station:wmo:42044:1,2011-06-03T15:00:00Z,26.1914,-97.0507,0.0,2.648206941,149.8528598,3.34,'11111222,11111222,11111222' 
TABS,ioos:station:wmo:42044:1,2011-06-03T15:30:00Z,26.1914,-97.0507,0.0,2.368818271,134.8292844,3.11,'11111222,11111222,11111222' 
TABS,ioos:station:wmo:42044:1,2011-06-03T16:00:00Z,26.1914,-97.0507,0.0,1.896364944,137.1372215,2.53,'11111222,11111222,11111222' 
TABS,ioos:station:wmo:42044:1,2011-06-03T16:30:00Z,26.1914,-97.0507,0.0,1.896523135,152.3542997,2.64,'11111222,11111222,11111222' 
TABS,ioos:station:wmo:42044:1,2011-06-03T17:00:00Z,26.1914,-97.0507,0.0,1.69292646,141.2347812,2.29,'11111222,11111222,11111222' 
TABS,ioos:station:wmo:42044:1,2011-06-03T17:30:00Z,26.1914,-97.0507,0.0,1.162970335,117.6671135,1.83,'11111222,11111222,11111222' 
TABS,ioos:station:wmo:42044:1,2011-06-03T18:00:00Z,26.1914,-97.0507,0.0,0.649384324,80.24717695,1.48,'11111222,11111222,11111222' 
TABS,ioos:station:wmo:42044:1,2011-06-03T18:30:00Z,26.1914,-97.0507,0.0,1.773414785,167.2962166,2.64,'11111222,11111222,11111222' 
TABS,ioos:station:wmo:42044:1,2011-06-03T19:00:00Z,26.1914,-97.0507,0.0,0.901997783,176.1861445,1.58,'11111222,11111222,11111222' 
TABS,ioos:station:wmo:42044:1,2011-06-03T19:30:00Z,26.1914,-97.0507,0.0,0.993579388,139.8993967,2.36,'11111222,11111222,11111222' 
TABS,ioos:station:wmo:42044:1,2011-06-03T20:00:00Z,26.1914,-97.0507,0.0,0.941912947,86.34736484,2.03,'11111222,11111222,11111222' 
TABS,ioos:station:wmo:42044:1,2011-06-03T20:30:00Z,26.1914,-97.0507,0.0,1.745451231,101.5678337,3.55,'11111222,11111222,11111222' 
TABS,ioos:station:wmo:42044:1,2011-06-03T21:00:00Z,26.1914,-97.0507,0.0,4.205436957,85.08886288,5.49,'11111222,11111222,11111222' 
TABS,ioos:station:wmo:42044:1,2011-06-03T21:30:00Z,26.1914,-97.0507,0.0,4.058780605,84.48564943,5.44,'11111222,11111222,11111222' 
TABS,ioos:station:wmo:42044:1,2011-06-03T22:00:00Z,26.1914,-97.0507,0.0,4.480401768,90.76772744,5.84,'11111222,11111222,11111222' 
TABS,ioos:station:wmo:42044:1,2011-06-03T22:30:00Z,26.1914,-97.0507,0.0,4.684634457,94.53044173,6.02,'11111222,11111222,11111222' 
TABS,ioos:station:wmo:42044:1,2011-06-03T23:00:00Z,26.1914,-97.0507,0.0,4.643888457,96.92647819,5.76,'11111222,11111222,11111222' 
TABS,ioos:station:wmo:42044:1,2011-06-03T23:30:00Z,26.1914,-97.0507,0.0,4.490901914,91.1487322,5.79,'11111222,11111222,11111222' 
TABS,ioos:station:wmo:42044:1,2011-06-04T00:00:00Z,26.1914,-97.0507,0.0,5.257461365,93.05329629,6.68,'11111222,11111222,11111222' 
TABS,ioos:station:wmo:42044:1,2011-06-04T00:30:00Z,26.1914,-97.0507,0.0,5.451797869,91.47191205,6.87,'11111222,11111222,11111222' 
TABS,ioos:station:wmo:42044:1,2011-06-04T01:00:00Z,26.1914,-97.0507,0.0,4.651075145,91.23239544,6.09,'11111222,11111222,11111222' 
TABS,ioos:station:wmo:42044:1,2011-06-04T01:30:00Z,26.1914,-97.0507,0.0,4.763244692,95.66312468,6.06,'11111222,11111222,11111222' 
TABS,ioos:station:wmo:42044:1,2011-06-04T02:00:00Z,26.1914,-97.0507,0.0,5.044838947,95.68839887,6.87,'11111222,11111222,11111222' 
TABS,ioos:station:wmo:42044:1,2011-06-04T02:30:00Z,26.1914,-97.0507,0.0,5.309058297,93.34786177,6.95,'11111222,11111222,11111222' 
TABS,ioos:station:wmo:42044:1,2011-06-04T03:00:00Z,26.1914,-97.0507,0.0,4.97169991,88.50124188,6.4,'11111222,11111222,11111222' 
TABS,ioos:station:wmo:42044:1,2011-06-04T03:30:00Z,26.1914,-97.0507,0.0,5.929460346,108.893682,7.69,'11111222,11111222,11111222' 
TABS,ioos:station:wmo:42044:1,2011-06-04T04:00:00Z,26.1914,-97.0507,0.0,5.420147599,108.5021827,6.93,'11111222,11111222,11111222' 
TABS,ioos:station:wmo:42044:1,2011-06-04T04:30:00Z,26.1914,-97.0507,0.0,5.861919481,106.8587803,7.78,'11111222,11111222,11111222' 
TABS,ioos:station:wmo:42044:1,2011-06-04T05:00:00Z,26.1914,-97.0507,0.0,6.143980794,104.8056544,7.99,'11111222,11111222,11111222' 
TABS,ioos:station:wmo:42044:1,2011-06-04T05:30:00Z,26.1914,-97.0507,0.0,6.058927298,108.3755191,7.57,'11111222,11111222,11111222' 
TABS,ioos:station:wmo:42044:1,2011-06-04T06:00:00Z,26.1914,-97.0507,0.0,5.790759881,107.590504,7.74,'11111222,11111222,11111222' 
TABS,ioos:station:wmo:42044:1,2011-06-04T06:30:00Z,26.1914,-97.0507,0.0,5.789991364,111.6915249,7.33,'11111222,11111222,11111222' 
TABS,ioos:station:wmo:42044:1,2011-06-04T07:00:00Z,26.1914,-97.0507,0.0,5.838261728,111.8200032,7.69,'11111222,11111222,11111222' 
TABS,ioos:station:wmo:42044:1,2011-06-04T07:30:00Z,26.1914,-97.0507,0.0,5.261834281,118.3674846,6.93,'11111222,11111222,11111222' 
TABS,ioos:station:wmo:42044:1,2011-06-04T08:00:00Z,26.1914,-97.0507,0.0,5.907977657,116.00158,7.45,'11111222,11111222,11111222' 
TABS,ioos:station:wmo:42044:1,2011-06-04T08:30:00Z,26.1914,-97.0507,0.0,5.497090139,114.0475167,6.81,'11111222,11111222,11111222' 
TABS,ioos:station:wmo:42044:1,2011-06-04T09:00:00Z,26.1914,-97.0507,0.0,5.066004343,108.6499161,6.42,'11111222,11111222,11111222' 
TABS,ioos:station:wmo:42044:1,2011-06-04T09:30:00Z,26.1914,-97.0507,0.0,4.560010965,104.737554,6.12,'11111222,11111222,11111222' 
TABS,ioos:station:wmo:42044:1,2011-06-04T10:00:00Z,26.1914,-97.0507,0.0,5.131101246,106.8814485,6.73,'11111222,11111222,11111222' 
TABS,ioos:station:wmo:42044:1,2011-06-04T10:30:00Z,26.1914,-97.0507,0.0,5.002919148,107.9282988,6.75,'11111222,11111222,11111222' 
TABS,ioos:station:wmo:42044:1,2011-06-04T11:00:00Z,26.1914,-97.0507,0.0,5.229608016,111.0693466,6.95,'11111222,11111222,11111222' 
TABS,ioos:station:wmo:42044:1,2011-06-04T11:30:00Z,26.1914,-97.0507,0.0,5.721162469,105.6156282,7.25,'11111222,11111222,11111222' 
TABS,ioos:station:wmo:42044:1,2011-06-04T12:00:00Z,26.1914,-97.0507,0.0,5.46283809,106.0466267,7.3,'11111222,11111222,11111222' 
TABS,ioos:station:wmo:42044:1,2011-06-04T12:30:00Z,26.1914,-97.0507,0.0,5.790138168,103.0765933,7.38,'11111222,11111222,11111222' 
TABS,ioos:station:wmo:42044:1,2011-06-04T13:00:00Z,26.1914,-97.0507,0.0,5.713160246,105.3258701,7.53,'11111222,11111222,11111222' 
TABS,ioos:station:wmo:42044:1,2011-06-04T13:30:00Z,26.1914,-97.0507,0.0,5.528155208,104.9918895,7.17,'11111222,11111222,11111222' 
TABS,ioos:station:wmo:42044:1,2011-06-04T14:00:00Z,26.1914,-97.0507,0.0,5.000129998,105.4263552,6.53,'11111222,11111222,11111222' 
TABS,ioos:station:wmo:42044:1,2011-06-04T14:30:00Z,26.1914,-97.0507,0.0,5.226786776,103.6112425,6.71,'11111222,11111222,11111222' 
TABS,ioos:station:wmo:42044:1,2011-06-04T15:00:00Z,26.1914,-97.0507,0.0,4.304706726,107.2988244,6.23,'11111222,11111222,11111222' 
TABS,ioos:station:wmo:42044:1,2011-06-04T15:30:00Z,26.1914,-97.0507,0.0,3.92173431,107.5112834,5.43,'11111222,11111222,11111222' 
TABS,ioos:station:wmo:42044:1,2011-06-04T16:00:00Z,26.1914,-97.0507,0.0,3.889730068,108.9011346,4.99,'11111222,11111222,11111222' 
TABS,ioos:station:wmo:42044:1,2011-06-04T16:30:00Z,26.1914,-97.0507,0.0,3.632079294,101.4340754,4.66,'11111222,11111222,11111222' 
TABS,ioos:station:wmo:42044:1,2011-06-04T17:00:00Z,26.1914,-97.0507,0.0,3.327777036,111.3221954,4.3,'11111222,11111222,11111222' 
TABS,ioos:station:wmo:42044:1,2011-06-04T17:30:00Z,26.1914,-97.0507,0.0,3.396954518,105.714096,4.4,'11111222,11111222,11111222' 
TABS,ioos:station:wmo:42044:1,2011-06-04T18:00:00Z,26.1914,-97.0507,0.0,4.443253313,104.0679065,6.25,'11111222,11111222,11111222' 
TABS,ioos:station:wmo:42044:1,2011-06-04T18:30:00Z,26.1914,-97.0507,0.0,4.343051922,81.92546672,5.65,'11111222,11111222,11111222' 